Location: Bittkow
(50.3000°N, 19.0000°E)
Time: 07:16:37
(UTC+00:00)

SJ 16-02 - Pass Details

Date: 19 September 2020
Orbit: 606 x 616 km, 75.0° (Epoch: 19 October)

Event Time Altitude Azimuth Distance (km) Brightness Sun altitude
Rises 02:22:50 0° 339° (NNW) 2,880 4.9 -19.7°
Reaches altitude 10° 02:25:06 10° 342° (NNW) 1,972 4.0 -19.4°
Maximum altitude 02:29:29 65° 65° (ENE) 674 1.7 -18.7°
Drops below altitude 10° 02:33:50 10° 148° (SSE) 1,963 4.0 -18.1°
Sets 02:36:05 0° 151° (SSE) 2,864 4.8 -17.8°
